Regional Weather Roundup
Issued by NWS

Home | Current Version | Previous Version | Graphics & Text | Print | Product List | Glossary On
Versions: 1 2 3 4 5 6 7 8 9 10 11 12 13 14 15 16 17 18 19 20 21 22 23 24 25 26 27 28 29 30 31 32 33 34 35 36 37 38 39 40 41 42 43 44 45 46 47 48 49 50
000
ASUS43 KLMK 301910
RWRKY
KENTUCKY REGIONAL WEATHER ROUNDUP
NATIONAL WEATHER SERVICE LOUISVILLE KY
300 PM EDT FRI SEP 30 2016

NOTE "FAIR" INDICATES FEW OR NO CLOUDS BELOW 12,000 FEET
WITH NO SIGNIFICANT WEATHER AND/OR OBSTRUCTIONS TO VISIBILITY.

KYZ001>023-026-027-061>063-070>075-302000-
WESTERN AND SOUTH CENTRAL KENTUCKY

CITY           SKY/WX    TMP DP  RH WIND       PRES   REMARKS
PADUCAH        CLOUDY    65  59  81 W6        30.03F
HENDERSON      PTSUNNY   66  52  59 NE7       29.98F
OWENSBORO      PTSUNNY  N/A N/A N/A N9        29.99F
HOPKINSVILLE   RAIN      66  55  68 W15       30.01F
BOWLING GREEN  CLOUDY    62  57  83 VRB5      30.01F
GLASGOW        CLOUDY   N/A N/A N/A S6        30.03F
$$

KYZ024-025-028>034-038-045-046-053-302000-
NORTH CENTRAL KENTUCKY

CITY           SKY/WX    TMP DP  RH WIND       PRES   REMARKS
LOUISVILLE/SDF PTSUNNY   63  53  70 CALM      30.02F
LOUISVILLE/LOU CLOUDY    63  53  70 CALM      30.02F
FORT KNOX      LGT RAIN  57  55  94 S5        30.00F FOG
$$

KYZ035>037-039>044-047>052-055>060-089>105-302000-
NORTHEAST KENTUCKY

CITY           SKY/WX    TMP DP  RH WIND       PRES   REMARKS
LEXINGTON      PTSUNNY   63  51  65 SW8       30.03F
COVINGTON      CLOUDY    65  56  72 CALM      30.00F
FRANKFORT      PTSUNNY   64  52  64 SW8       30.01F
$$

KYZ054-064>069-076>088-106>120-302000-
SOUTHEAST KENTUCKY

CITY           SKY/WX    TMP DP  RH WIND       PRES   REMARKS
JACKSON        PTSUNNY   63  52  67 CALM      30.03F
LONDON         MOSUNNY   62  47  57 W7        30.04F
SOMERSET       PTSUNNY   61  50  67 S5        30.04F
MIDDLESBORO    PTSUNNY   68  51  55 N8        30.02F
MONTICELLO     CLOUDY    65  50  58 W14       30.05F
$$





USA.gov is the U.S. government's official web portal to all federal, state and local government web resources and services.